Data supplied by UK-AIR on 8/11/2015
All Data GMT hour ending 
Status: R =Ratified P=Provisional,P*=As supplied
,,Eskdalemuir,,,,,,,,,,,,,,,,,,,,,,,
Date,time,"Nitric oxide",status,unit,"Nitrogen dioxide",status,unit,"Nitrogen oxides as nitrogen dioxide",status,unit,"Ozone",status,unit
 
01-01-2014,01:00,0.71096,R,ugm-3,2.50283,R,ugm-3,3.59295,R,ugm-3,63.34285,R,ugm-3
01-01-2014,02:00,0.39124,R,ugm-3,1.25141,R,ugm-3,1.85130,R,ugm-3,64.74450,R,ugm-3
01-01-2014,03:00,0.77301,R,ugm-3,1.01984,R,ugm-3,2.20511,R,ugm-3,65.05084,R,ugm-3
01-01-2014,04:00,0.69350,R,ugm-3,1.18240,R,ugm-3,2.24575,R,ugm-3,60.51761,R,ugm-3
01-01-2014,05:00,0.58623,R,ugm-3,1.59168,R,ugm-3,2.49055,R,ugm-3,60.71468,R,ugm-3
01-01-2014,06:00,0.40007,R,ugm-3,0.73392,R,ugm-3,1.34736,R,ugm-3,71.22803,R,ugm-3
01-01-2014,07:00,0.40007,R,ugm-3,1.34640,R,ugm-3,1.95983,R,ugm-3,62.55472,R,ugm-3
01-01-2014,08:00,0.63987,R,ugm-3,1.67296,R,ugm-3,2.65407,R,ugm-3,62.22593,R,ugm-3
01-01-2014,09:00,0.82634,R,ugm-3,1.63184,R,ugm-3,2.89887,R,ugm-3,62.68594,R,ugm-3
01-01-2014,10:00,0.71969,R,ugm-3,1.67296,R,ugm-3,2.77647,R,ugm-3,63.80303,R,ugm-3
01-01-2014,11:00,0.72000,R,ugm-3,0.93713,R,ugm-3,2.04112,R,ugm-3,67.67968,R,ugm-3
01-01-2014,12:00,0.47990,R,ugm-3,0.57040,R,ugm-3,1.30624,R,ugm-3,68.53384,R,ugm-3
01-01-2014,13:00,0.56004,R,ugm-3,0.40688,R,ugm-3,1.26560,R,ugm-3,67.08845,R,ugm-3
01-01-2014,14:00,0.61336,R,ugm-3,2.65264,R,ugm-3,3.59311,R,ugm-3,61.63470,R,ugm-3
01-01-2014,15:00,0.77333,R,ugm-3,6.81711,R,ugm-3,8.00286,R,ugm-3,61.76542,R,ugm-3
01-01-2014,16:00,0.55973,R,ugm-3,6.45038,R,ugm-3,7.30862,R,ugm-3,65.05134,R,ugm-3
01-01-2014,17:00,0.77333,R,ugm-3,5.10255,R,ugm-3,6.28830,R,ugm-3,69.19092,R,ugm-3
01-01-2014,18:00,0.50640,R,ugm-3,3.87855,R,ugm-3,4.65503,R,ugm-3,68.40212,R,ugm-3
01-01-2014,19:00,0.50672,R,ugm-3,2.93903,R,ugm-3,3.71599,R,ugm-3,68.53384,R,ugm-3
01-01-2014,20:00,0.66637,R,ugm-3,2.93856,R,ugm-3,3.96031,R,ugm-3,68.46848,R,ugm-3
01-01-2014,21:00,0.53353,R,ugm-3,1.26464,R,ugm-3,2.08271,R,ugm-3,77.73351,R,ugm-3
01-01-2014,22:00,0.55973,R,ugm-3,0.85632,R,ugm-3,1.71456,R,ugm-3,79.04718,R,ugm-3
01-01-2014,23:00,0.48021,R,ugm-3,1.75424,R,ugm-3,2.49055,R,ugm-3,69.19092,R,ugm-3
01-01-2014,24:00,0.53353,R,ugm-3,2.85680,R,ugm-3,3.67487,R,ugm-3,59.92588,R,ugm-3
02-01-2014,01:00,0.53260,R,ugm-3,2.66348,R,ugm-3,3.48011,R,ugm-3,58.13075,R,ugm-3
02-01-2014,02:00,0.85191,R,ugm-3,1.19531,R,ugm-3,2.50155,R,ugm-3,57.09897,R,ugm-3
02-01-2014,03:00,0.63893,R,ugm-3,1.01888,R,ugm-3,1.99856,R,ugm-3,57.62584,R,ugm-3
02-01-2014,04:00,0.77208,R,ugm-3,0.52928,R,ugm-3,1.71312,R,ugm-3,59.46986,R,ugm-3
02-01-2014,05:00,0.90554,R,ugm-3,0.56945,R,ugm-3,1.95792,R,ugm-3,56.90140,R,ugm-3
02-01-2014,06:00,0.69225,R,ugm-3,0.73344,R,ugm-3,1.79488,R,ugm-3,60.26016,R,ugm-3
02-01-2014,07:00,0.42627,R,ugm-3,0.52881,R,ugm-3,1.18240,R,ugm-3,67.04355,R,ugm-3
02-01-2014,08:00,0.74589,R,ugm-3,0.48769,R,ugm-3,1.63136,R,ugm-3,69.15101,R,ugm-3
02-01-2014,09:00,0.53229,R,ugm-3,0.40688,R,ugm-3,1.22304,R,ugm-3,71.39018,R,ugm-3
02-01-2014,10:00,0.39945,R,ugm-3,0.57040,R,ugm-3,1.18288,R,ugm-3,72.37805,R,ugm-3
02-01-2014,11:00,0.77208,R,ugm-3,0.44705,R,ugm-3,1.63088,R,ugm-3,73.03663,R,ugm-3
02-01-2014,12:00,0.69225,R,ugm-3,0.77408,R,ugm-3,1.83552,R,ugm-3,72.24634,R,ugm-3
02-01-2014,13:00,0.77208,R,ugm-3,0.97777,R,ugm-3,2.16160,R,ugm-3,73.56350,R,ugm-3
02-01-2014,14:00,0.47959,R,ugm-3,0.97729,R,ugm-3,1.71264,R,ugm-3,78.04185,R,ugm-3
02-01-2014,15:00,0.55910,R,ugm-3,1.79345,R,ugm-3,2.65073,R,ugm-3,74.48551,R,ugm-3
02-01-2014,16:00,0.74557,R,ugm-3,1.58977,R,ugm-3,2.73296,R,ugm-3,75.86853,R,ugm-3
02-01-2014,17:00,0.66575,R,ugm-3,1.75281,R,ugm-3,2.77360,R,ugm-3,73.16835,R,ugm-3
02-01-2014,18:00,0.61211,R,ugm-3,3.26225,R,ugm-3,4.20081,R,ugm-3,70.79746,R,ugm-3
02-01-2014,19:00,0.66575,R,ugm-3,1.10017,R,ugm-3,2.12096,R,ugm-3,73.49764,R,ugm-3
02-01-2014,20:00,0.63924,R,ugm-3,0.85537,R,ugm-3,1.83552,R,ugm-3,74.41965,R,ugm-3
02-01-2014,21:00,0.55910,R,ugm-3,0.81473,R,ugm-3,1.67200,R,ugm-3,72.31219,R,ugm-3
02-01-2014,22:00,0.39945,R,ugm-3,3.67009,R,ugm-3,4.28257,R,ugm-3,64.93609,R,ugm-3
02-01-2014,23:00,0.39945,R,ugm-3,5.13841,R,ugm-3,5.75089,R,ugm-3,60.98460,R,ugm-3
02-01-2014,24:00,0.58592,R,ugm-3,4.36241,R,ugm-3,5.26081,R,ugm-3,65.79224,R,ugm-3
03-01-2014,01:00,0.31931,R,ugm-3,3.31628,R,ugm-3,3.80588,R,ugm-3,68.73657,R,ugm-3
03-01-2014,02:00,0.92342,R,ugm-3,2.33644,R,ugm-3,3.75233,R,ugm-3,68.64809,R,ugm-3
03-01-2014,03:00,0.66544,R,ugm-3,0.28448,R,ugm-3,1.30480,R,ugm-3,92.27867,R,ugm-3
03-01-2014,04:00,0.82540,R,ugm-3,0.08033,R,ugm-3,1.34592,R,ugm-3,92.87289,R,ugm-3
03-01-2014,05:00,0.66606,R,ugm-3,0.48769,R,ugm-3,1.50896,R,ugm-3,91.75081,R,ugm-3
03-01-2014,06:00,0.55941,R,ugm-3,0.03968,R,ugm-3,0.89744,R,ugm-3,90.62873,R,ugm-3
03-01-2014,07:00,0.66575,R,ugm-3,-0.00143,R,ugm-3,1.01936,R,ugm-3,94.19305,R,ugm-3
03-01-2014,08:00,0.47928,R,ugm-3,0.44705,R,ugm-3,1.18193,R,ugm-3,91.09073,R,ugm-3
03-01-2014,09:00,0.61242,R,ugm-3,0.20273,R,ugm-3,1.14176,R,ugm-3,91.81667,R,ugm-3
03-01-2014,10:00,0.45277,R,ugm-3,0.08033,R,ugm-3,0.77456,R,ugm-3,86.80048,R,ugm-3
03-01-2014,11:00,0.55910,R,ugm-3,0.32560,R,ugm-3,1.18288,R,ugm-3,87.59227,R,ugm-3
03-01-2014,12:00,0.53260,R,ugm-3,0.44705,R,ugm-3,1.26368,R,ugm-3,87.32834,R,ugm-3
03-01-2014,13:00,0.47928,R,ugm-3,0.24337,R,ugm-3,0.97824,R,ugm-3,86.79998,R,ugm-3
03-01-2014,14:00,0.69256,R,ugm-3,0.81377,R,ugm-3,1.87568,R,ugm-3,82.57558,R,ugm-3
03-01-2014,15:00,0.53260,R,ugm-3,1.30433,R,ugm-3,2.12096,R,ugm-3,80.66170,R,ugm-3
03-01-2014,16:00,0.26630,R,ugm-3,1.38608,R,ugm-3,1.79440,R,ugm-3,80.79392,R,ugm-3
03-01-2014,17:00,0.63924,R,ugm-3,1.30433,R,ugm-3,2.28448,R,ugm-3,82.31165,R,ugm-3
03-01-2014,18:00,0.58561,R,ugm-3,2.07937,R,ugm-3,2.97728,R,ugm-3,77.22910,R,ugm-3
03-01-2014,19:00,0.37294,R,ugm-3,1.05953,R,ugm-3,1.63136,R,ugm-3,78.61511,R,ugm-3
03-01-2014,20:00,0.47928,R,ugm-3,1.10064,R,ugm-3,1.83552,R,ugm-3,78.35168,R,ugm-3
03-01-2014,21:00,0.45246,R,ugm-3,1.01888,R,ugm-3,1.71264,R,ugm-3,78.61461,R,ugm-3
03-01-2014,22:00,0.55910,R,ugm-3,1.05953,R,ugm-3,1.91680,R,ugm-3,76.96517,R,ugm-3
03-01-2014,23:00,0.55910,R,ugm-3,0.93713,R,ugm-3,1.79440,R,ugm-3,75.71087,R,ugm-3
03-01-2014,24:00,0.50609,R,ugm-3,0.56945,R,ugm-3,1.34544,R,ugm-3,76.23873,R,ugm-3
04-01-2014,01:00,0.70930,R,ugm-3,0.48769,R,ugm-3,1.57526,R,ugm-3,76.47855,R,ugm-3
04-01-2014,02:00,0.63831,R,ugm-3,0.28401,R,ugm-3,1.26273,R,ugm-3,73.21425,R,ugm-3
04-01-2014,03:00,0.74464,R,ugm-3,-0.08224,R,ugm-3,1.05953,R,ugm-3,73.50063,R,ugm-3
04-01-2014,04:00,0.50516,R,ugm-3,0.28496,R,ugm-3,1.05953,R,ugm-3,72.11163,R,ugm-3
04-01-2014,05:00,0.53166,R,ugm-3,0.44753,R,ugm-3,1.26273,R,ugm-3,73.50113,R,ugm-3
04-01-2014,06:00,0.66512,R,ugm-3,0.48769,R,ugm-3,1.50753,R,ugm-3,73.50063,R,ugm-3
04-01-2014,07:00,0.53197,R,ugm-3,0.93569,R,ugm-3,1.75137,R,ugm-3,67.28253,R,ugm-3
04-01-2014,08:00,0.85128,R,ugm-3,0.44609,R,ugm-3,1.75137,R,ugm-3,56.36555,R,ugm-3
04-01-2014,09:00,0.82447,R,ugm-3,0.85393,R,ugm-3,2.11809,R,ugm-3,46.44243,R,ugm-3
04-01-2014,10:00,0.58498,R,ugm-3,0.81377,R,ugm-3,1.71073,R,ugm-3,53.85247,R,ugm-3
04-01-2014,11:00,0.39882,R,ugm-3,0.93617,R,ugm-3,1.54769,R,ugm-3,77.00708,R,ugm-3
04-01-2014,12:00,0.61180,R,ugm-3,1.17953,R,ugm-3,2.11762,R,ugm-3,68.34075,R,ugm-3
04-01-2014,13:00,0.58498,R,ugm-3,1.42481,R,ugm-3,2.32178,R,ugm-3,62.91544,R,ugm-3
04-01-2014,14:00,0.55848,R,ugm-3,2.97298,R,ugm-3,3.82930,R,ugm-3,61.06343,R,ugm-3
04-01-2014,15:00,0.74433,R,ugm-3,3.50274,R,ugm-3,4.64403,R,ugm-3,58.08635,R,ugm-3
04-01-2014,16:00,0.50547,R,ugm-3,4.56179,R,ugm-3,5.33683,R,ugm-3,60.46821,R,ugm-3
04-01-2014,17:00,0.66512,R,ugm-3,2.40162,R,ugm-3,3.42146,R,ugm-3,71.64862,R,ugm-3
04-01-2014,18:00,0.34581,R,ugm-3,0.77361,R,ugm-3,1.30385,R,ugm-3,77.07344,R,ugm-3
04-01-2014,19:00,0.47896,R,ugm-3,0.69089,R,ugm-3,1.42529,R,ugm-3,74.22906,R,ugm-3
04-01-2014,20:00,0.50516,R,ugm-3,0.61057,R,ugm-3,1.38513,R,ugm-3,59.60757,R,ugm-3
04-01-2014,21:00,0.71782,R,ugm-3,1.22113,R,ugm-3,2.32178,R,ugm-3,54.57990,R,ugm-3
04-01-2014,22:00,0.50516,R,ugm-3,1.30289,R,ugm-3,2.07745,R,ugm-3,64.10687,R,ugm-3
04-01-2014,23:00,0.61149,R,ugm-3,1.62897,R,ugm-3,2.56658,R,ugm-3,65.29731,R,ugm-3
04-01-2014,24:00,0.61149,R,ugm-3,1.38465,R,ugm-3,2.32225,R,ugm-3,70.06055,R,ugm-3
05-01-2014,01:00,0.42491,R,ugm-3,0.97601,R,ugm-3,1.62754,R,ugm-3,63.38942,R,ugm-3
05-01-2014,02:00,0.82353,R,ugm-3,0.73058,R,ugm-3,1.99330,R,ugm-3,62.41751,R,ugm-3
05-01-2014,03:00,0.53104,R,ugm-3,0.48817,R,ugm-3,1.30241,R,ugm-3,65.77727,R,ugm-3
05-01-2014,04:00,0.50485,R,ugm-3,0.73153,R,ugm-3,1.50562,R,ugm-3,63.65435,R,ugm-3
05-01-2014,05:00,0.45152,R,ugm-3,1.26082,R,ugm-3,1.95314,R,ugm-3,58.74842,R,ugm-3
05-01-2014,06:00,0.45183,R,ugm-3,1.50418,R,ugm-3,2.19698,R,ugm-3,58.21806,R,ugm-3
05-01-2014,07:00,0.58436,R,ugm-3,1.91154,R,ugm-3,2.80755,R,ugm-3,54.10642,R,ugm-3
05-01-2014,08:00,0.61087,R,ugm-3,1.99330,R,ugm-3,2.92995,R,ugm-3,55.36720,R,ugm-3
05-01-2014,09:00,0.47834,R,ugm-3,1.34162,R,ugm-3,2.07506,R,ugm-3,54.43821,R,ugm-3
05-01-2014,10:00,0.55786,R,ugm-3,1.46354,R,ugm-3,2.31891,R,ugm-3,56.82556,R,ugm-3
05-01-2014,11:00,0.79703,R,ugm-3,1.50418,R,ugm-3,2.72627,R,ugm-3,63.72170,R,ugm-3
05-01-2014,12:00,0.42533,R,ugm-3,2.03299,R,ugm-3,2.68515,R,ugm-3,68.49542,R,ugm-3
05-01-2014,13:00,0.79703,R,ugm-3,3.13220,R,ugm-3,4.35428,R,ugm-3,63.25671,R,ugm-3
05-01-2014,14:00,0.90305,R,ugm-3,3.82309,R,ugm-3,5.20774,R,ugm-3,63.05813,R,ugm-3
05-01-2014,15:00,0.92986,R,ugm-3,4.88070,R,ugm-3,6.30647,R,ugm-3,63.92028,R,ugm-3
05-01-2014,16:00,0.66419,R,ugm-3,5.85799,R,ugm-3,6.87639,R,ugm-3,62.12963,R,ugm-3
05-01-2014,17:00,0.71720,R,ugm-3,4.14869,R,ugm-3,5.24838,R,ugm-3,67.56742,R,ugm-3
05-01-2014,18:00,0.63768,R,ugm-3,4.63638,R,ugm-3,5.61414,R,ugm-3,66.04170,R,ugm-3
05-01-2014,19:00,0.66419,R,ugm-3,4.67750,R,ugm-3,5.69590,R,ugm-3,66.90435,R,ugm-3
05-01-2014,20:00,0.85035,R,ugm-3,5.57255,R,ugm-3,6.87639,R,ugm-3,64.84778,R,ugm-3
05-01-2014,21:00,0.82384,R,ugm-3,5.08438,R,ugm-3,6.34759,R,ugm-3,65.57721,R,ugm-3
05-01-2014,22:00,0.82384,R,ugm-3,3.45684,R,ugm-3,4.72005,R,ugm-3,68.62813,R,ugm-3
05-01-2014,23:00,0.74370,R,ugm-3,0.52833,R,ugm-3,1.66866,R,ugm-3,81.82270,R,ugm-3
05-01-2014,24:00,0.50485,R,ugm-3,0.16208,R,ugm-3,0.93617,R,ugm-3,84.80677,R,ugm-3
06-01-2014,01:00,0.31848,R,ugm-3,0.59543,R,ugm-3,1.08375,R,ugm-3,82.96391,R,ugm-3
06-01-2014,02:00,0.92986,R,ugm-3,0.11858,R,ugm-3,1.54434,R,ugm-3,83.58457,R,ugm-3
06-01-2014,03:00,0.58436,R,ugm-3,0.48578,R,ugm-3,1.38178,R,ugm-3,85.99721,R,ugm-3
06-01-2014,04:00,0.61087,R,ugm-3,1.46115,R,ugm-3,2.39780,R,ugm-3,85.86400,R,ugm-3
06-01-2014,05:00,0.55786,R,ugm-3,2.31460,R,ugm-3,3.16997,R,ugm-3,86.79399,R,ugm-3
06-01-2014,06:00,0.53166,R,ugm-3,0.52594,R,ugm-3,1.34114,R,ugm-3,91.70740,R,ugm-3
06-01-2014,07:00,0.77052,R,ugm-3,0.80994,R,ugm-3,1.99139,R,ugm-3,95.62596,R,ugm-3
06-01-2014,08:00,0.82384,R,ugm-3,0.52498,R,ugm-3,1.78819,R,ugm-3,90.31391,R,ugm-3
06-01-2014,09:00,0.69069,R,ugm-3,0.68850,R,ugm-3,1.74755,R,ugm-3,88.52077,R,ugm-3
06-01-2014,10:00,0.66419,R,ugm-3,0.48530,R,ugm-3,1.50370,R,ugm-3,86.46171,R,ugm-3
06-01-2014,11:00,0.77052,R,ugm-3,0.56610,R,ugm-3,1.74755,R,ugm-3,84.33679,R,ugm-3
06-01-2014,12:00,0.61087,R,ugm-3,0.56706,R,ugm-3,1.50370,R,ugm-3,82.47729,R,ugm-3
06-01-2014,13:00,0.47834,R,ugm-3,0.60770,R,ugm-3,1.34114,R,ugm-3,80.35287,R,ugm-3
06-01-2014,14:00,0.50485,R,ugm-3,0.48578,R,ugm-3,1.25986,R,ugm-3,80.75101,R,ugm-3
06-01-2014,15:00,0.66388,R,ugm-3,0.52642,R,ugm-3,1.54434,R,ugm-3,79.02373,R,ugm-3
06-01-2014,16:00,0.55786,R,ugm-3,0.28257,R,ugm-3,1.13794,R,ugm-3,79.35652,R,ugm-3
06-01-2014,17:00,0.71689,R,ugm-3,0.12001,R,ugm-3,1.21922,R,ugm-3,80.21916,R,ugm-3
06-01-2014,18:00,0.37232,R,ugm-3,0.81090,R,ugm-3,1.38178,R,ugm-3,79.48923,R,ugm-3
06-01-2014,19:00,0.34550,R,ugm-3,0.36433,R,ugm-3,0.89409,R,ugm-3,79.95373,R,ugm-3
06-01-2014,20:00,0.50485,R,ugm-3,0.56706,R,ugm-3,1.34114,R,ugm-3,80.15280,R,ugm-3
06-01-2014,21:00,0.53135,R,ugm-3,0.52642,R,ugm-3,1.34114,R,ugm-3,79.82102,R,ugm-3
06-01-2014,22:00,0.37201,R,ugm-3,0.52689,R,ugm-3,1.09730,R,ugm-3,80.15280,R,ugm-3
06-01-2014,23:00,0.67313,R,ugm-3,0.59351,R,ugm-3,1.62563,R,ugm-3,78.62609,R,ugm-3
06-01-2014,24:00,0.31889,R,ugm-3,0.64898,R,ugm-3,1.13794,R,ugm-3,79.06897,R,ugm-3
07-01-2014,01:00,0.67271,R,ugm-3,0.86318,R,ugm-3,1.89465,R,ugm-3,79.06897,R,ugm-3
07-01-2014,02:00,0.56627,R,ugm-3,0.91800,R,ugm-3,1.78628,R,ugm-3,73.83358,R,ugm-3
07-01-2014,03:00,0.92893,R,ugm-3,1.01171,R,ugm-3,2.43605,R,ugm-3,74.14375,R,ugm-3
07-01-2014,04:00,0.71689,R,ugm-3,0.48386,R,ugm-3,1.58307,R,ugm-3,75.74131,R,ugm-3
07-01-2014,05:00,0.66388,R,ugm-3,0.56514,R,ugm-3,1.58307,R,ugm-3,76.80651,R,ugm-3
07-01-2014,06:00,0.42439,R,ugm-3,0.48578,R,ugm-3,1.13650,R,ugm-3,78.33721,R,ugm-3
07-01-2014,07:00,0.71689,R,ugm-3,0.36194,R,ugm-3,1.46115,R,ugm-3,79.26920,R,ugm-3
07-01-2014,08:00,0.58405,R,ugm-3,0.56562,R,ugm-3,1.46115,R,ugm-3,79.86791,R,ugm-3
07-01-2014,09:00,0.53104,R,ugm-3,1.05331,R,ugm-3,1.86756,R,ugm-3,78.67000,R,ugm-3
07-01-2014,10:00,0.56627,R,ugm-3,1.29668,R,ugm-3,2.16495,R,ugm-3,78.07079,R,ugm-3
07-01-2014,11:00,0.69038,R,ugm-3,1.41812,R,ugm-3,2.47669,R,ugm-3,76.27416,R,ugm-3
07-01-2014,12:00,0.53073,R,ugm-3,0.97203,R,ugm-3,1.78580,R,ugm-3,77.80436,R,ugm-3
07-01-2014,13:00,0.50453,R,ugm-3,0.36290,R,ugm-3,1.13650,R,ugm-3,80.46712,R,ugm-3
07-01-2014,14:00,0.29187,R,ugm-3,0.68850,R,ugm-3,1.13603,R,ugm-3,80.06748,R,ugm-3
07-01-2014,15:00,0.21204,R,ugm-3,1.50179,R,ugm-3,1.82692,R,ugm-3,77.07244,R,ugm-3
07-01-2014,16:00,0.58374,R,ugm-3,1.62228,R,ugm-3,2.51733,R,ugm-3,78.53728,R,ugm-3
07-01-2014,17:00,0.37138,R,ugm-3,1.41955,R,ugm-3,1.98900,R,ugm-3,78.00493,R,ugm-3
07-01-2014,18:00,0.61055,R,ugm-3,1.62132,R,ugm-3,2.55749,R,ugm-3,78.00443,R,ugm-3
07-01-2014,19:00,0.50422,R,ugm-3,1.13507,R,ugm-3,1.90820,R,ugm-3,76.74015,R,ugm-3
07-01-2014,20:00,0.50422,R,ugm-3,1.17571,R,ugm-3,1.94884,R,ugm-3,75.34217,R,ugm-3
07-01-2014,21:00,0.58436,R,ugm-3,1.17475,R,ugm-3,2.07076,R,ugm-3,74.80931,R,ugm-3
07-01-2014,22:00,0.63706,R,ugm-3,1.05331,R,ugm-3,2.03012,R,ugm-3,78.26986,R,ugm-3
07-01-2014,23:00,0.45121,R,ugm-3,1.37891,R,ugm-3,2.07076,R,ugm-3,73.74461,R,ugm-3
07-01-2014,24:00,0.69007,R,ugm-3,1.58068,R,ugm-3,2.63877,R,ugm-3,72.47983,R,ugm-3
08-01-2014,01:00,0.49476,R,ugm-3,1.40378,R,ugm-3,2.16240,R,ugm-3,73.28809,R,ugm-3
08-01-2014,02:00,0.88350,R,ugm-3,0.59160,R,ugm-3,1.94629,R,ugm-3,72.39867,R,ugm-3
08-01-2014,03:00,0.74214,R,ugm-3,0.88931,R,ugm-3,2.02725,R,ugm-3,72.50977,R,ugm-3
08-01-2014,04:00,0.53010,R,ugm-3,0.84915,R,ugm-3,1.66196,R,ugm-3,71.70899,R,ugm-3
08-01-2014,05:00,0.66263,R,ugm-3,0.48434,R,ugm-3,1.50036,R,ugm-3,71.24250,R,ugm-3
08-01-2014,06:00,0.55661,R,ugm-3,0.56610,R,ugm-3,1.41955,R,ugm-3,70.84186,R,ugm-3
08-01-2014,07:00,0.63612,R,ugm-3,0.36242,R,ugm-3,1.33779,R,ugm-3,73.37640,R,ugm-3
08-01-2014,08:00,0.53010,R,ugm-3,0.72771,R,ugm-3,1.54052,R,ugm-3,76.57850,R,ugm-3
08-01-2014,09:00,0.45059,R,ugm-3,0.60626,R,ugm-3,1.29715,R,ugm-3,74.64467,R,ugm-3
08-01-2014,10:00,0.66263,R,ugm-3,1.09204,R,ugm-3,2.10805,R,ugm-3,68.24047,R,ugm-3
08-01-2014,11:00,0.68913,R,ugm-3,1.82166,R,ugm-3,2.87831,R,ugm-3,65.83914,R,ugm-3
08-01-2014,12:00,0.66263,R,ugm-3,1.90342,R,ugm-3,2.91943,R,ugm-3,66.97270,R,ugm-3
08-01-2014,13:00,0.76865,R,ugm-3,2.30839,R,ugm-3,3.48697,R,ugm-3,65.37215,R,ugm-3
08-01-2014,14:00,0.79515,R,ugm-3,2.26727,R,ugm-3,3.48649,R,ugm-3,66.97370,R,ugm-3
08-01-2014,15:00,0.63612,R,ugm-3,2.87640,R,ugm-3,3.85178,R,ugm-3,65.43900,R,ugm-3
08-01-2014,16:00,0.39758,R,ugm-3,2.55271,R,ugm-3,3.16232,R,ugm-3,63.83745,R,ugm-3
08-01-2014,17:00,0.60962,R,ugm-3,3.76810,R,ugm-3,4.70284,R,ugm-3,57.56796,R,ugm-3
08-01-2014,18:00,0.29156,R,ugm-3,3.40473,R,ugm-3,3.85178,R,ugm-3,59.10166,R,ugm-3
08-01-2014,19:00,0.60962,R,ugm-3,3.48458,R,ugm-3,4.41931,R,ugm-3,53.76516,R,ugm-3
08-01-2014,20:00,0.68913,R,ugm-3,3.48458,R,ugm-3,4.54123,R,ugm-3,45.49398,R,ugm-3
08-01-2014,21:00,0.76865,R,ugm-3,3.64618,R,ugm-3,4.82476,R,ugm-3,36.88802,R,ugm-3
08-01-2014,22:00,0.63612,R,ugm-3,3.20057,R,ugm-3,4.17594,R,ugm-3,34.82048,R,ugm-3
08-01-2014,23:00,0.68913,R,ugm-3,3.03801,R,ugm-3,4.09466,R,ugm-3,35.28747,R,ugm-3
08-01-2014,24:00,0.74214,R,ugm-3,2.26823,R,ugm-3,3.40616,R,ugm-3,37.62194,R,ugm-3
09-01-2014,01:00,0.52927,R,ugm-3,1.72635,R,ugm-3,2.53789,R,ugm-3,29.32748,R,ugm-3
09-01-2014,02:00,0.84723,R,ugm-3,1.00884,R,ugm-3,2.30791,R,ugm-3,29.23834,R,ugm-3
09-01-2014,03:00,0.68820,R,ugm-3,0.32178,R,ugm-3,1.37700,R,ugm-3,27.00980,R,ugm-3
09-01-2014,04:00,0.66169,R,ugm-3,0.10646,R,ugm-3,1.08056,R,ugm-3,26.60867,R,ugm-3
09-01-2014,05:00,0.58218,R,ugm-3,0.12001,R,ugm-3,1.01267,R,ugm-3,29.75090,R,ugm-3
09-01-2014,06:00,0.60868,R,ugm-3,1.05092,R,ugm-3,1.98422,R,ugm-3,30.55317,R,ugm-3
09-01-2014,07:00,0.55598,R,ugm-3,5.78914,R,ugm-3,6.64163,R,ugm-3,52.41507,R,ugm-3
09-01-2014,08:00,0.74090,R,ugm-3,9.75710,R,ugm-3,10.89312,R,ugm-3,51.34537,R,ugm-3
09-01-2014,09:00,0.74121,R,ugm-3,3.35883,R,ugm-3,4.49533,R,ugm-3,58.49896,R,ugm-3
09-01-2014,10:00,0.79391,R,ugm-3,2.83193,R,ugm-3,4.04924,R,ugm-3,52.81620,R,ugm-3
09-01-2014,11:00,0.47647,R,ugm-3,1.41621,R,ugm-3,2.14678,R,ugm-3,66.45481,R,ugm-3
09-01-2014,12:00,0.68820,R,ugm-3,1.01028,R,ugm-3,2.06550,R,ugm-3,69.59704,R,ugm-3
09-01-2014,13:00,0.55598,R,ugm-3,1.05044,R,ugm-3,1.90294,R,ugm-3,71.87015,R,ugm-3
09-01-2014,14:00,0.60868,R,ugm-3,1.29381,R,ugm-3,2.22711,R,ugm-3,73.00670,R,ugm-3
09-01-2014,15:00,0.58218,R,ugm-3,1.82118,R,ugm-3,2.71384,R,ugm-3,69.66390,R,ugm-3
09-01-2014,16:00,0.82041,R,ugm-3,1.00980,R,ugm-3,2.26775,R,ugm-3,73.47469,R,ugm-3
09-01-2014,17:00,0.74090,R,ugm-3,1.29381,R,ugm-3,2.42983,R,ugm-3,72.20443,R,ugm-3
09-01-2014,18:00,0.47647,R,ugm-3,1.33445,R,ugm-3,2.06502,R,ugm-3,68.86163,R,ugm-3
09-01-2014,19:00,0.31744,R,ugm-3,1.45733,R,ugm-3,1.94406,R,ugm-3,66.45481,R,ugm-3
09-01-2014,20:00,0.47678,R,ugm-3,1.09060,R,ugm-3,1.82166,R,ugm-3,66.98966,R,ugm-3
09-01-2014,21:00,0.58218,R,ugm-3,1.05140,R,ugm-3,1.94406,R,ugm-3,65.71940,R,ugm-3
09-01-2014,22:00,0.87342,R,ugm-3,0.11858,R,ugm-3,1.45780,R,ugm-3,68.05936,R,ugm-3
09-01-2014,23:00,0.76740,R,ugm-3,0.24050,R,ugm-3,1.41716,R,ugm-3,66.92281,R,ugm-3
09-01-2014,24:00,0.74090,R,ugm-3,1.37461,R,ugm-3,2.51063,R,ugm-3,58.56581,R,ugm-3
10-01-2014,01:00,0.74131,R,ugm-3,1.39868,R,ugm-3,2.53534,R,ugm-3,58.51792,R,ugm-3
10-01-2014,02:00,0.84692,R,ugm-3,3.59550,R,ugm-3,4.89409,R,ugm-3,50.29896,R,ugm-3
10-01-2014,03:00,0.76740,R,ugm-3,3.63710,R,ugm-3,4.81376,R,ugm-3,52.59917,R,ugm-3
10-01-2014,04:00,0.58187,R,ugm-3,1.77767,R,ugm-3,2.66985,R,ugm-3,56.82057,R,ugm-3
10-01-2014,05:00,0.44996,R,ugm-3,1.25125,R,ugm-3,1.94119,R,ugm-3,58.42861,R,ugm-3
10-01-2014,06:00,0.89993,R,ugm-3,0.96629,R,ugm-3,2.34616,R,ugm-3,60.17085,R,ugm-3
10-01-2014,07:00,0.74090,R,ugm-3,0.80564,R,ugm-3,1.94167,R,ugm-3,60.97562,R,ugm-3
10-01-2014,08:00,0.55598,R,ugm-3,1.04853,R,ugm-3,1.90103,R,ugm-3,57.69170,R,ugm-3
10-01-2014,09:00,0.74090,R,ugm-3,2.46426,R,ugm-3,3.60028,R,ugm-3,57.29006,R,ugm-3
10-01-2014,10:00,0.87342,R,ugm-3,3.15084,R,ugm-3,4.49007,R,ugm-3,58.83074,R,ugm-3
10-01-2014,11:00,0.44996,R,ugm-3,2.78890,R,ugm-3,3.47884,R,ugm-3,60.77455,R,ugm-3
10-01-2014,12:00,0.74090,R,ugm-3,2.78747,R,ugm-3,3.92349,R,ugm-3,68.21203,R,ugm-3
10-01-2014,13:00,0.87342,R,ugm-3,1.57351,R,ugm-3,2.91274,R,ugm-3,76.72119,R,ugm-3
10-01-2014,14:00,0.29125,R,ugm-3,1.33349,R,ugm-3,1.78006,R,ugm-3,78.12866,R,ugm-3
10-01-2014,15:00,0.79422,R,ugm-3,3.31293,R,ugm-3,4.53071,R,ugm-3,74.37575,R,ugm-3
10-01-2014,16:00,0.66169,R,ugm-3,4.72866,R,ugm-3,5.74324,R,ugm-3,70.49012,R,ugm-3
10-01-2014,17:00,0.63519,R,ugm-3,2.66603,R,ugm-3,3.63997,R,ugm-3,67.47462,R,ugm-3
10-01-2014,18:00,0.23855,R,ugm-3,1.05044,R,ugm-3,1.41621,R,ugm-3,75.11316,R,ugm-3
10-01-2014,19:00,0.31775,R,ugm-3,1.00932,R,ugm-3,1.49653,R,ugm-3,76.25270,R,ugm-3
10-01-2014,20:00,0.58187,R,ugm-3,0.92804,R,ugm-3,1.82022,R,ugm-3,72.63450,R,ugm-3
10-01-2014,21:00,0.58187,R,ugm-3,0.92804,R,ugm-3,1.82022,R,ugm-3,66.80456,R,ugm-3
10-01-2014,22:00,0.58249,R,ugm-3,1.16997,R,ugm-3,2.06311,R,ugm-3,64.05698,R,ugm-3
10-01-2014,23:00,0.44996,R,ugm-3,1.29237,R,ugm-3,1.98231,R,ugm-3,49.78573,R,ugm-3
10-01-2014,24:00,0.50297,R,ugm-3,1.41334,R,ugm-3,2.18455,R,ugm-3,45.49697,R,ugm-3
11-01-2014,01:00,0.91635,R,ugm-3,2.25866,R,ugm-3,3.66371,R,ugm-3,39.21883,R,ugm-3
11-01-2014,02:00,0.81116,R,ugm-3,1.18001,R,ugm-3,2.42378,R,ugm-3,38.59152,R,ugm-3
11-01-2014,03:00,0.44965,R,ugm-3,0.80516,R,ugm-3,1.49462,R,ugm-3,39.28585,R,ugm-3
11-01-2014,04:00,0.79328,R,ugm-3,0.80325,R,ugm-3,2.01960,R,ugm-3,42.24099,R,ugm-3
11-01-2014,05:00,0.79328,R,ugm-3,0.72340,R,ugm-3,1.93975,R,ugm-3,55.46998,R,ugm-3
11-01-2014,06:00,0.74027,R,ugm-3,0.72388,R,ugm-3,1.85895,R,ugm-3,51.10539,R,ugm-3
11-01-2014,07:00,0.87280,R,ugm-3,0.56036,R,ugm-3,1.89863,R,ugm-3,59.49980,R,ugm-3
11-01-2014,08:00,0.84598,R,ugm-3,0.96533,R,ugm-3,2.26249,R,ugm-3,49.29179,R,ugm-3
11-01-2014,09:00,0.42315,R,ugm-3,0.76500,R,ugm-3,1.41382,R,ugm-3,62.11866,R,ugm-3
11-01-2014,10:00,0.68757,R,ugm-3,0.23858,R,ugm-3,1.29285,R,ugm-3,65.74534,R,ugm-3
11-01-2014,11:00,0.50266,R,ugm-3,0.03777,R,ugm-3,0.80851,R,ugm-3,70.04258,R,ugm-3
11-01-2014,12:00,0.52886,R,ugm-3,0.28018,R,ugm-3,1.09108,R,ugm-3,70.24415,R,ugm-3
11-01-2014,13:00,0.71377,R,ugm-3,0.52211,R,ugm-3,1.61654,R,ugm-3,68.49841,R,ugm-3
11-01-2014,14:00,0.81979,R,ugm-3,0.40019,R,ugm-3,1.65718,R,ugm-3,68.96840,R,ugm-3
11-01-2014,15:00,0.63488,R,ugm-3,0.76404,R,ugm-3,1.73751,R,ugm-3,67.08845,R,ugm-3
11-01-2014,16:00,0.71408,R,ugm-3,0.40019,R,ugm-3,1.49510,R,ugm-3,66.81953,R,ugm-3
11-01-2014,17:00,0.74058,R,ugm-3,0.92565,R,ugm-3,2.06120,R,ugm-3,56.74623,R,ugm-3
11-01-2014,18:00,0.50235,R,ugm-3,1.45207,R,ugm-3,2.22233,R,ugm-3,48.08340,R,ugm-3
11-01-2014,19:00,0.58187,R,ugm-3,1.77480,R,ugm-3,2.66698,R,ugm-3,43.71830,R,ugm-3
11-01-2014,20:00,0.39664,R,ugm-3,1.61367,R,ugm-3,2.22185,R,ugm-3,44.18829,R,ugm-3
11-01-2014,21:00,0.58155,R,ugm-3,1.20966,R,ugm-3,2.10136,R,ugm-3,39.62163,R,ugm-3
11-01-2014,22:00,0.66107,R,ugm-3,2.25962,R,ugm-3,3.27324,R,ugm-3,38.47959,R,ugm-3
11-01-2014,23:00,0.71377,R,ugm-3,1.32919,R,ugm-3,2.42362,R,ugm-3,30.95830,R,ugm-3
11-01-2014,24:00,0.26443,R,ugm-3,2.18073,R,ugm-3,2.58618,R,ugm-3,29.41412,R,ugm-3
12-01-2014,01:00,0.42284,R,ugm-3,2.36449,R,ugm-3,3.01283,R,ugm-3,34.28080,R,ugm-3
12-01-2014,02:00,0.73965,R,ugm-3,1.28711,R,ugm-3,2.42123,R,ugm-3,32.91209,R,ugm-3
12-01-2014,03:00,0.50204,R,ugm-3,1.49032,R,ugm-3,2.26010,R,ugm-3,32.30639,R,ugm-3
12-01-2014,04:00,1.10947,R,ugm-3,1.16423,R,ugm-3,2.86540,R,ugm-3,26.78778,R,ugm-3
12-01-2014,05:00,0.66045,R,ugm-3,1.69065,R,ugm-3,2.70332,R,ugm-3,32.91209,R,ugm-3
12-01-2014,06:00,0.55505,R,ugm-3,1.85273,R,ugm-3,2.70380,R,ugm-3,40.11407,R,ugm-3
12-01-2014,07:00,0.60775,R,ugm-3,1.69113,R,ugm-3,2.62299,R,ugm-3,40.11407,R,ugm-3
12-01-2014,08:00,0.79235,R,ugm-3,1.48840,R,ugm-3,2.70332,R,ugm-3,37.15245,R,ugm-3
12-01-2014,09:00,0.66076,R,ugm-3,3.58737,R,ugm-3,4.60052,R,ugm-3,41.32496,R,ugm-3
12-01-2014,10:00,0.47553,R,ugm-3,2.53980,R,ugm-3,3.26894,R,ugm-3,44.62285,R,ugm-3
12-01-2014,11:00,0.68695,R,ugm-3,2.17499,R,ugm-3,3.22830,R,ugm-3,55.93049,R,ugm-3
12-01-2014,12:00,0.60775,R,ugm-3,2.33708,R,ugm-3,3.26894,R,ugm-3,60.17036,R,ugm-3
12-01-2014,13:00,0.73965,R,ugm-3,3.34544,R,ugm-3,4.47955,R,ugm-3,62.25736,R,ugm-3
12-01-2014,14:00,0.55474,R,ugm-3,4.11283,R,ugm-3,4.96342,R,ugm-3,59.36309,R,ugm-3
12-01-2014,15:00,0.73965,R,ugm-3,4.35428,R,ugm-3,5.48840,R,ugm-3,59.22789,R,ugm-3
12-01-2014,16:00,0.52823,R,ugm-3,4.15395,R,ugm-3,4.96389,R,ugm-3,58.28592,R,ugm-3
12-01-2014,17:00,0.60775,R,ugm-3,7.05808,R,ugm-3,7.98995,R,ugm-3,53.77663,R,ugm-3
12-01-2014,18:00,0.68695,R,ugm-3,9.80156,R,ugm-3,10.85487,R,ugm-3,48.12331,R,ugm-3
12-01-2014,19:00,0.79235,R,ugm-3,12.74777,R,ugm-3,13.96268,R,ugm-3,39.97886,R,ugm-3
12-01-2014,20:00,0.87186,R,ugm-3,14.15919,R,ugm-3,15.49603,R,ugm-3,34.52711,R,ugm-3
12-01-2014,21:00,1.18837,R,ugm-3,12.94715,R,ugm-3,14.76928,R,ugm-3,33.38357,R,ugm-3
12-01-2014,22:00,0.76615,R,ugm-3,12.34328,R,ugm-3,13.51803,R,ugm-3,35.33537,R,ugm-3
12-01-2014,23:00,0.79235,R,ugm-3,11.25458,R,ugm-3,12.46950,R,ugm-3,34.52711,R,ugm-3
12-01-2014,24:00,0.84505,R,ugm-3,10.24526,R,ugm-3,11.54098,R,ugm-3,33.85406,R,ugm-3